User: anonymous   Login
Location: Unspecified
(0.0000°N, 0.0000°E)
Time: 13:48:39
(UTC+00:00)
Language:

CUBERRT - Orbit

View from above orbital plane
View from above orbital plane
View from above satellite
View from above satellite

Ground track
Ground track

The orbit data is extracted from the following two-line orbital elements,

1 43546U 98067NU  19170.47112679 +.00018996 +00000-0 +19734-3 0  9997
2 43546 051.6385 335.5157 0005099 136.6065 223.5333 15.64644570053114
Epoch (UTC): 19 June 2019 11:18:25
Eccentricity: 0.0005099
inclination: 51.6385°
perigee height: 371 km
apogee height: 378 km
right ascension of ascending node: 335.5157°
argument of perigee: 136.6065°
revolutions per day: 15.64644570
mean anomaly at epoch: 223.5333°
orbit number at epoch: 5311

The dashed part of the orbit path shows where the satellite is in the earth's shadow,  

DLR